Regional Weather Roundup
Issued by NWS

Home | Current Version | Previous Version | Graphics & Text | Print | Product List | Glossary On
Versions: 1 2 3 4 5 6 7 8 9 10 11 12 13 14 15 16 17 18 19 20 21 22 23 24 25 26 27 28 29 30 31 32 33 34 35 36 37 38 39 40 41 42 43 44 45 46 47 48 49 50
096
ASUS43 KFSD 270502
RWRSD

WEATHER ROUNDUP FOR SOUTH DAKOTA
NATIONAL WEATHER SERVICE SIOUX FALLS SD
1200 AM CDT THU JUL 27 2017

NOTE: "FAIR" INDICATES FEW OR NO CLOUDS BELOW 12,000 FEET WITH NO
SIGNIFICANT WEATHER AND/OR OBSTRUCTIONS TO VISIBILITY.


SDZ001>005-009-010-012>017-270600-
NORTHWEST AND NORTH CENTRAL SOUTH DAKOTA

CITY           SKY/WX    TMP DP  RH WIND       PRES   REMARKS
BUFFALO          N/A     71  52  50 SE9       30.07R
FAITH            N/A     73  52  47 SE13      30.13S
MOBRIDGE       CLEAR     72  56  57 E12       30.10R
$$

SDZ012>016-024>037-041>051-057-063-072>074-270600-
SOUTHWEST AND SOUTH CENTRAL SOUTH DAKOTA

CITY           SKY/WX    TMP DP  RH WIND       PRES   REMARKS
RAPID CTY ARPT MOCLDY    69  51  52 SE6       30.17R
PIERRE         CLEAR     69  54  58 CALM      30.10S
CUSTER         CLOUDY    66  50  56 CALM      30.31S
PHILIP         CLEAR     71  53  52 VRB5      30.13R
PINE RIDGE     CLOUDY    70  58  65 E7        30.18S
SPEARFISH      FAIR      70  52  52 NE6       30.19R
WINNER         FAIR      70  58  65 SE7       30.13S
$$

SDZ004>011-016>023-039-040-270600-
NORTHEAST SOUTH DAKOTA

CITY           SKY/WX    TMP DP  RH WIND       PRES   REMARKS
ABERDEEN       CLEAR     66  60  81 N5        30.11R
WATERTOWN      CLEAR     63  60  90 N3        30.10S
BROOKINGS      CLEAR     67  62  84 CALM      30.11R
SISSETON         N/A     65  61  87 NW5       30.09R
$$

SDZ017-020-022-023-036>040-048>070-270600-
SOUTHEAST SOUTH DAKOTA

CITY           SKY/WX    TMP DP  RH WIND       PRES   REMARKS
SIOUX FALLS    CLEAR     65  63  93 N3        30.08S
HURON          CLEAR     64  61  90 W3        30.09R
CHAMBERLAIN    CLEAR     71  63  76 CALM      30.12S
MITCHELL       CLEAR     67  64  90 NW3       30.09S
YANKTON        CLEAR     69  61  75 N6        30.08S
$$

ABBREVIATIONS USED IN REMARKS
   TC - TEMPERATURE IN CELSIUS
  WCI - WIND CHILL INDEX
   HX - HEAT INDEX
  VSB - VISIBILITY





USA.gov is the U.S. government's official web portal to all federal, state and local government web resources and services.